Starlink 32491

operational
NORAD ID: 62043 Int'l Des: 2024-216 Owner: SPXS Country: US Constellation: starlink
LEOCIRCULAR

About Starlink 32491

Description loading...

Live Position

Loading 3D Globe...

Upcoming Passes

Altitude History

Altitude vs Time

uPlot chart will show altitude changes over time

Two-Line Element Set

1 62043U 24216M 25351.46298231 .00021622 00000-0 79238-3 0 9996
2 62043 43.0016 8.1764 0001740 279.2813 80.7842 15.27603381 61216
Epoch: Dec 17, 2025 • Age: 24 hours

Current Status

Altitude 487.1 km
Velocity 7.63 km/s
Sub-Earth Point 43.12°N, 163.2°W
Launch Date Nov 21, 2024
Age 1 years
Type internet

Technical Details

Classification Payload
Mass 730.00 kg
Dry Mass 700.00 kg
Total Mass 730.00 kg
Length 0.30 m
Diameter 4.10 m
Span 29.00 m
Shape Box + pan
Manufacturer SPXS
Bus Type Starlink V2M
Phase Status In Orbit
Owner/State SPXS/US

Large Constellations

Loading constellations...